COSMOS 1275 DEB, 14558

Orbit data source: Space-Track

COSMOS 1275 DEB, 14558 is space debris in LEO originally from a launch on Thu, 04 Jun 1981 UTC launched from the Plesetsk Missile And Space Complex (PKMTR). Debris objects in space refer to the collection of defunct objects orbiting the Earth. Examples of debris include non-operational satellites, rocket bodies, and fragments generated from explosions, collisions, or faulty payload assembly.

Loading next visibility...
Identifier
14558, 1981-053JN
Orbit
LEO
Country
Flag of CISCIS
Related business
Manufacturer
Unknown
Mission
Spacecraft
Bus & Motor
Unknown
Mass
Unknown
Launch date (UTC)
1981-06-04 (44 years ago)
Launch vehicle
Unknown
Launch site
Plesetsk Missile And Space Complex (PKMTR)
Object type
Payload
Rocket body
Debris
Shape & HBR
Unknown shape, 0.1 m
Radar Cross Section
Small (<0.1 m²)

Expand to show TLE details & history
Last TLE update: 1 day ago

TLE from 1 day ago
0 COSMOS 1275 DEB
1 14558U 81053JN  25285.97766282  .00008866  00000-0  29786-2 0  9991
2 14558  82.9222 211.9737 0011556 258.8160 223.7754 14.37057142258085
Epoch: 2025-10-12T23:27Z
TLE epoch observation values (Epoch: 2025-10-12T23:27:50.067Z)
Latitude
56.92019°
Longitude
7.29868°
Altitude
783.763 km
Speed
7.464 km/s
True Right ascension
01h 24m 10s
True Declination
56° 45' 48"
Sunlit
Object was in full shadow at epoch
Visualization orbit readout
Latitude
Unknown
Longitude
Unknown
Altitude
Unknown
Speed
Unknown
Apparent Right ascension
Unknown
Apparent Declination
Unknown
Sunlit
N/A
Visualization observer readout
Local Sidereal Time
21:11:33
Azimuth
Unknown
Elevation
Unknown
Doppler factor
Unknown
Orbital elements
Apogee altitude
773.557 km
Perigee altitude
757.048 km
Semi-major axis
7,143.439 km
Eccentricity
0.00116
Inclination
82.9222°
RAAN
211.9737°
Arg. of periapsis
258.816°
True anomaly
223.68388°
Mean anomaly
223.7754°
Eccentric anomaly
223.72963°
Mean motion
3.59486 °/min
Orbital period
100.14 mins
BSTAR
0.0029786
Loading maneuver chart data...
Computing Atmospheric mass density...
Loading historical data...
Loading historical data...
Loading historical data...
Loading historical data...
Loading historical data...
Loading historical data...
Loading historical data...

Documentation

Showing up to 5 results
|